KIRKWALL_AIRPORT current weather conditions

sailwx.info

Wind from 140 at 8 knots

Air temperature 6.0° C
Visibility: greater than 4.9 NM
Dewpoint 5.0° C
Present weather: Showers in the vicinity.

Last reported at 2018-Feb-19 06:50 UTC.
Time now 2018-Feb-19 08:22 UTC

Location: N 58°57' W 002°54'.
View on Google Maps.

See reports from other nearby stations

  
Tides and Currents Weather Stations Pressure Air Temp Water Temp Dewpoint Dewpoint Depression Visibility Wind Speed Wind Dir Waves Ship Positions
date/time (UTC)wind fromknots sea level pressurealtimeterstation pressurevisibilityair tempwater tempwave heightnotes
2018-Feb-19 07:50 140 8 4.3 7.0 Showers in the vicinity.
2018-Feb-19 07:20 150 8 4.9 7.0 Showers in the vicinity.
2018-Feb-19 06:50 140 8 4.9 6.0 Showers in the vicinity.
2018-Feb-19 06:20 150 8 5.4 6.0 Showers in the vicinity.
2018-Feb-19 05:50 140 7 4.3 6.0
2018-Feb-19 05:20 140 7 4.3 6.0
2018-Feb-19 04:50 140 7 5.4 6.0
2018-Feb-19 04:20 140 6 5.4 6.0 Light drizzle.
2018-Feb-19 03:50 130 8 5.4 6.0 Light drizzle.
2018-Feb-19 03:20 130 7 5.4 6.0 Light drizzle.
2018-Feb-19 02:50 130 8 5.4 6.0
2018-Feb-19 02:20 140 7 5.4 6.0
2018-Feb-19 01:50 130 7 5.4 6.0
2018-Feb-19 01:20 130 8 5.4 6.0
2018-Feb-19 00:50 130 7 5.4 6.0
2018-Feb-19 00:20 130 7 5.4 5.0
2018-Feb-18 23:50 130 6 5.4 5.0
2018-Feb-18 23:20 130 6 5.4 5.0
2018-Feb-18 22:50 130 5 5.4 5.0
2018-Feb-18 22:20 130 5 5.4 5.0
2018-Feb-18 21:50 130 6 5.4 5.0
2018-Feb-18 21:20 130 6 5.4 5.0
2018-Feb-18 20:50 130 6 5.4 5.0
2018-Feb-18 20:20 140 6 5.4 5.0
2018-Feb-18 19:50 140 5 5.4 5.0
2018-Feb-18 19:20 150 5 5.4 5.0
2018-Feb-18 18:50 160 6 5.4 4.0
2018-Feb-18 18:20 160 6 5.4 4.0
2018-Feb-18 17:50 160 5 5.4 3.0
2018-Feb-18 17:20 160 5 5.4 4.0
2018-Feb-18 16:50 160 4 5.4 5.0
2018-Feb-18 16:20 140 5 5.4 6.0
2018-Feb-18 15:50 160 6 5.4 6.0
2018-Feb-18 15:20 160 6 5.4 6.0
2018-Feb-18 14:50 170 6 5.4 7.0
2018-Feb-18 14:20 170 6 5.4 6.0
2018-Feb-18 13:50 170 7 5.4 6.0
2018-Feb-18 13:20 180 7 5.4 7.0
2018-Feb-18 12:50 170 6 5.4 7.0
2018-Feb-18 12:20 160 5 5.4 6.0
2018-Feb-18 11:50 170 4 5.4 6.0
2018-Feb-18 11:20 150 4 5.4 6.0
2018-Feb-18 10:50 170 4 5.4 5.0
2018-Feb-18 10:20 180 6 5.4 5.0
2018-Feb-18 09:50 160 2 5.4 3.0
2018-Feb-18 09:20 200 4 5.4 3.0
2018-Feb-18 08:50 200 6 5.4 3.0
2018-Feb-18 08:20 180 6 5.4 2.0
2018-Feb-18 07:20 200 6 5.4 2.0
2018-Feb-18 06:50 180 5 5.4 1.0
2018-Feb-18 06:20 220 4 5.4 2.0
2018-Feb-18 05:50 220 4 5.4 2.0
2018-Feb-18 05:20 5.4 2.0
2018-Feb-18 04:50 210 4 5.4 2.0
2018-Feb-18 04:20 210 5 5.4 2.0
2018-Feb-18 03:50 230 5 5.4 2.0
2018-Feb-18 03:20 210 7 5.4 2.0
2018-Feb-18 02:50 220 6 5.4 3.0
2018-Feb-18 02:20 220 6 5.4 3.0
2018-Feb-18 01:50 200 6 5.4 2.0
2018-Feb-18 01:20 220 6 5.4 3.0
2018-Feb-18 00:50 200 6 5.4 2.0
2018-Feb-18 00:20 250 5 5.4 3.0
2018-Feb-17 23:50 250 9 5.4 4.0
2018-Feb-17 23:20 230 6 5.4 3.0
2018-Feb-17 22:50 240 7 5.4 4.0 Light drizzle.
2018-Feb-17 22:20 230 8 5.4 3.0
2018-Feb-17 21:50 240 12 4.3 4.0 Light rain.
2018-Feb-17 21:20 5.4 3.0
2018-Feb-17 20:50 290 12 5.4 3.0
2018-Feb-17 20:20 220 7 5.4 3.0
2018-Feb-17 19:50 240 8 5.4 3.0
2018-Feb-17 19:20 240 13 5.4 4.0
2018-Feb-17 18:50 240 9 5.4 4.0
2018-Feb-17 18:20 240 11 5.4 5.0
2018-Feb-17 17:50 230 11 5.4 5.0
2018-Feb-17 17:20 230 12 5.4 5.0
2018-Feb-17 16:50 230 12 5.4 5.0
2018-Feb-17 16:20 230 9 5.4 6.0 Light rain showers.
2018-Feb-17 15:50 230 12 5.4 6.0
2018-Feb-17 15:20 230 9 5.4 6.0
2018-Feb-17 14:50 230 11 5.4 6.0
2018-Feb-17 14:20 220 9 5.4 7.0
2018-Feb-17 13:50 220 11 5.4 6.0
2018-Feb-17 13:20 220 9 5.4 6.0
2018-Feb-17 12:50 230 8 5.4 5.0 Showers in the vicinity.
2018-Feb-17 12:20 220 13 5.4 7.0
2018-Feb-17 11:50 230 12 5.4 6.0
2018-Feb-17 11:20 210 12 5.4 6.0
2018-Feb-17 10:50 220 13 5.4 6.0
2018-Feb-17 10:20 210 12 5.4 6.0
2018-Feb-17 09:50 200 9 5.4 4.0
2018-Feb-17 09:20 200 12 5.4 5.0
2018-Feb-17 08:50 210 12 5.4 5.0
2018-Feb-17 08:20 200 9 5.4 5.0